EA5CEE Weather Reports


time (UTC)temp
C
wind
direction
speed
KPH
gust
KPH
rain 1hr
cm
rain 24hr
cm
rain mn
cm
humidity
%
barometer
mb
20260508121611 18 276 1.6 4.8 0.00 0.00 0.00 74 1012.3
20260508120050 16 295 3.2 8.0 0.00 0.00 0.00 80 1012.3
20260508114549 16 253 3.2 9.7 0.00 0.00 0.00 86 1012.8
20260508113044 15 273 4.8 11.3 0.00 0.00 0.00 88 1012.8
20260508111547 15 257 6.4 16.1 0.00 0.00 0.00 90 1013.3
20260508110041 15 242 9.7 16.1 0.00 0.00 0.00 89 1013.5
20260508104544 15 225 8.0 11.3 0.00 0.00 0.00 89 1013.3
20260508103044 15 221 4.8 8.0 0.00 0.00 0.00 92 1013.3
20260508101545 15 224 1.6 4.8 0.00 0.00 0.00 90 1012.8
20260508100038 15 224 4.8 8.0 0.00 0.00 0.00 89 1013.0
20260508094545 15 280 11.3 17.7 0.00 0.00 0.00 90 1013.3
20260508093137 15 252 6.4 12.9 0.00 0.00 0.00 88 1013.5
20260508091547 15 235 4.8 11.3 0.00 0.00 0.00 86 1012.9
20260508090048 15 239 1.6 4.8 0.00 0.00 0.00 89 1012.9
20260508084532 15 226 0.0 3.2 0.00 0.00 0.00 87 1012.9
20260508083031 15 224 3.2 6.4 0.00 0.00 0.00 87 1013.0
20260508081536 15 264 1.6 4.8 0.00 0.00 0.00 85 1012.5
20260508080029 15 280 3.2 8.0 0.00 0.00 0.00 84 1012.6
20260508074531 15 263 1.6 4.8 0.00 0.00 0.00 84 1012.2
20260508073027 15 255 1.6 4.8 0.00 0.00 0.00 83 1012.0
20260508071531 15 262 1.6 4.8 0.00 0.00 0.00 80 1011.9
20260508070032 15 259 0.0 3.2 0.00 0.00 0.00 82 1011.9
20260508064529 15 269 1.6 3.2 0.00 0.00 0.00 82 1011.8
20260508063019 14 250 0.0 4.8 0.00 0.00 0.00 83 1011.7
20260508061520 13 273 1.6 6.4 0.00 0.00 0.00 85 1011.5
20260508060021 13 260 3.2 6.4 0.00 0.00 0.00 88 1011.1
20260508054512 12 243 4.8 8.0 0.00 0.00 0.00 90 1011.2
20260508053012 12 235 6.4 9.7 0.00 0.00 0.00 91 1011.3
20260508051510 12 248 4.8 9.7 0.00 0.00 0.00 90 1011.0
20260508050009 12 245 8.0 11.3 0.00 0.00 0.00 91 1010.8
20260508044507 12 236 6.4 12.9 0.00 0.00 0.00 92 1010.6
20260508043005 12 236 8.0 11.3 0.00 0.00 0.00 94 1010.8
20260508041502 12 236 6.4 9.7 0.00 0.00 0.00 97 1010.6
20260508040003 12 249 3.2 8.0 0.00 0.00 0.00 97 1010.1
20260508034600 12 242 4.8 9.7 0.00 0.00 0.00 97 1010.2
20260508033115 12 256 4.8 11.3 0.00 0.00 0.00 97 1010.2
20260508031554 12 246 3.2 8.0 0.00 0.00 0.00 97 1010.5
20260508030106 12 244 6.4 11.3 0.00 0.00 0.00 97 1010.7
20260508024615 12 259 4.8 8.0 0.00 0.00 0.00 97 1010.7
20260508023049 12 233 4.8 9.7 0.00 0.00 0.00 97 1010.8
20260508021547 12 257 6.4 8.0 0.00 0.00 0.00 97 1010.6
20260508014549 12 248 3.2 8.0 0.00 0.00 0.00 97 1011.0
20260508013141 12 252 4.8 9.7 0.00 0.00 0.00 97 1011.2
20260508011544 12 274 4.8 9.7 0.00 0.00 0.00 97 1011.2
20260508010037 13 259 4.8 6.4 0.00 0.00 0.00 97 1011.6
20260508004536 13 264 6.4 8.0 0.00 0.00 0.00 97 1011.8
20260508003033 13 255 6.4 8.0 0.00 0.00 0.00 97 1012.0
20260508001545 13 238 4.8 11.3 0.00 0.00 0.00 97 1012.2
20260508000027 13 258 8.0 11.3 0.00 0.00 0.00 97 1012.2
20260507234525 13 267 8.0 11.3 0.00 0.00 0.00 97 1012.4
20260507233027 13 221 4.8 8.0 0.00 0.00 0.00 97 1012.5
20260507231523 13 262 6.4 9.7 0.00 0.00 0.00 97 1012.6
20260507230027 13 259 6.4 11.3 0.00 0.00 0.00 97 1012.4
20260507224527 13 271 6.4 9.7 0.00 0.00 0.00 97 1012.3
20260507223016 13 269 4.8 8.0 0.00 0.00 0.00 97 1012.2
20260507221522 13 276 1.6 3.2 0.00 0.00 0.00 97 1012.0
20260507220017 13 323 1.6 4.8 0.00 0.00 0.00 97 1011.9
20260507214513 13 355 3.2 4.8 0.00 0.00 0.00 97 1012.0
20260507213012 13 347 1.6 4.8 0.00 0.00 0.00 97 1012.0
20260507211528 13 11 3.2 9.7 0.00 0.00 0.00 97 1012.0
20260507210011 13 26 4.8 12.9 0.00 0.00 0.00 97 1012.0
20260507204509 13 61 9.7 16.1 0.00 0.00 0.00 97 1011.9
20260507203008 13 44 9.7 14.5 0.00 0.00 0.00 97 1011.8
20260507201507 14 55 17.7 25.7 0.00 0.00 0.00 97 1011.7
20260507200005 14 53 12.9 25.7 0.00 0.00 0.00 97 1011.6
20260507194503 14 46 17.7 29.0 0.00 0.00 0.00 97 1011.4
20260507193001 14 46 20.9 30.6 0.00 0.00 0.00 97 1011.2
20260507191604 14 74 24.1 29.0 0.00 0.00 0.00 97 1011.0
20260507190159 14 46 12.9 17.7 0.00 0.00 0.00 97 1010.7
20260507184557 13 27 8.0 14.5 0.00 0.00 0.00 97 1010.7
20260507183104 13 36 8.0 19.3 0.00 0.00 0.00 96 1010.6
20260507181554 13 21 9.7 17.7 0.00 0.00 0.00 94 1010.6
20260507180055 13 331 3.2 14.5 0.00 0.00 0.00 93 1010.4
20260507174551 13 305 6.4 19.3 0.00 0.00 0.00 93 1010.3
20260507173058 14 353 8.0 20.9 0.00 0.00 0.00 91 1010.5
20260507171545 15 342 17.7 27.4 0.00 0.00 0.00 87 1010.1
20260507170049 16 63 8.0 14.5 0.00 0.00 0.00 94 1009.8
20260507164538 16 111 14.5 19.3 0.00 0.00 0.00 93 1009.2
20260507163037 16 93 9.7 16.1 0.00 0.00 0.00 92 1009.1
20260507161538 16 117 8.0 16.1 0.00 0.00 0.00 90 1009.4
20260507160035 17 98 11.3 25.7 0.00 0.00 0.00 88 1009.3
20260507154534 17 77 12.9 17.7 0.00 0.00 0.00 87 1009.2
20260507153034 17 63 8.0 19.3 0.00 0.00 0.00 86 1009.1
20260507151533 17 56 14.5 22.5 0.00 0.00 0.00 87 1009.2
20260507150033 17 61 14.5 22.5 0.00 0.00 0.00 87 1009.0
20260507144531 18 54 16.1 27.4 0.00 0.00 0.00 87 1009.0
20260507143031 18 36 14.5 22.5 0.00 0.00 0.00 86 1009.0
20260507141529 18 57 14.5 20.9 0.00 0.00 0.00 87 1009.0
20260507140033 17 72 16.1 20.9 0.00 0.00 0.00 87 1009.0
20260507134527 17 77 17.7 24.1 0.00 0.00 0.00 86 1009.1
20260507133024 18 47 20.9 30.6 0.00 0.00 0.00 85 1009.3
20260507131524 18 76 19.3 27.4 0.00 0.00 0.00 84 1009.4
20260507130023 18 40 19.3 27.4 0.00 0.00 0.00 83 1009.7
20260507124522 18 82 16.1 25.7 0.00 0.00 0.00 81 1009.9
20260507123024 18 58 20.9 27.4 0.00 0.00 0.00 80 1010.0